Location: Unspecified
(47.9110°N, 14.3980°E)
Time: 17:52:46
(UTC+00:00)

Cosmos 1656 - Pass Details

Date: 06 August 2020
Orbit: 798 x 849 km, 71.1° (Epoch: 24 September)

Event Time Altitude Azimuth Distance (km) Brightness Sun altitude
Rises 20:00:48 0° 329° (NNW) 3,325 8.4 -13.3°
Reaches altitude 10° 20:03:15 10° 325° (NW) 2,396 7.4 -13.6°
Maximum altitude 20:08:35 56° 249° (WSW) 967 4.1 -14.2°
Enters shadow 20:13:08 14° 175° (S) 2,112 5.3 -14.8°
